Simultaneous Nadir Overpasses (SNOs) Predictions

Prediction of SNOs between GOES-16 and NOAA-20 Satellite Orbit:

Table of predicted SNOs for the next 14.0 days since TLE Epoch: 8/9/2019
Index Date Time (GOES-16) GOES-16 Lat,Lon NOAA-20 Lat,Lon Distance(km) Time Diff (sec)
1 08/11/2019 06:31:51 -0.04, -75.17 0.21, -76.42 142.12 80
2 08/12/2019 06:10:26 -0.04, -75.17 -0.79, -71.89 374.36 80
3 08/13/2019 18:32:21 0.04, -75.17 -0.41, -77.19 229.63 80
4 08/14/2019 18:16:16 0.05, -75.18 0.59, -72.65 287.37 80
5 08/16/2019 06:38:03 -0.05, -75.18 0.55, -77.92 312.09 80
6 08/17/2019 06:16:38 -0.05, -75.19 -0.46, -73.39 205.32 80
7 08/18/2019 18:38:33 0.05, -75.20 -0.74, -78.69 397.37 80
8 08/19/2019 18:22:27 0.05, -75.22 0.26, -74.15 120.52 80
9 08/21/2019 06:44:15 -0.05, -75.23 0.87, -79.43 477.66 80
10 08/22/2019 06:22:49 -0.05, -75.25 -0.13, -74.89 40.30 80




NCC Satellite Simultaneous Nadir Overpasses (SNOs) Prediction Service
